ARIANE 5 R/B, 40665

Orbit data source: Space-Track

ARIANE 5 R/B, 40665 is space debris in HEO originally from a launch on Wed, 27 May 2015 UTC launched from the French Guiana (FRGUI). Debris objects in space refer to the collection of defunct objects orbiting the Earth. Examples of debris include non-operational satellites, rocket bodies, and fragments generated from explosions, collisions, or faulty payload assembly.

Loading next visibility...
Identifier
40665, 2015-026C
Orbit
HEO
Country
Flag of FRFR
Related business
Manufacturer
Airbus Safran
Mission
Spacecraft
Bus & Motor
ESC-A, Unknown motor
Mass
~5,000 kg wet, ~5,000 kg dry
Launch date (UTC)
2015-05-27 (10 years ago)
Launch vehicle
Unknown
Launch site
French Guiana (FRGUI)
Object type
Payload
Rocket body
Debris
Shape & HBR
Cyl + 1 Nozzle, 3.5 m
Radar Cross Section
41.627 m², Large (>1 m²)

Expand to show TLE details & history
Last TLE update: 18 hours ago

TLE from 18 hours ago
0 ARIANE 5 R/B
1 40665U 15026C   25260.66952283  .00003455  00000-0  70328-3 0  9991
2 40665   3.7567 105.3139 6950989   7.5526 359.1650  2.71040455 92563
Epoch: 2025-09-17T16:04Z
TLE epoch observation values (Epoch: 2025-09-17T16:04:06.772Z)
Latitude
0.00024°
Longitude
-132.43025°
Altitude
276.718 km
Speed
10.071 km/s
True Right ascension
07h 01m 45s
True Declination
0° 00' 01"
Sunlit
Object was in daylight at epoch
Visualization orbit readout
Latitude
Unknown
Longitude
Unknown
Altitude
Unknown
Speed
Unknown
Apparent Right ascension
Unknown
Apparent Declination
Unknown
Sunlit
N/A
Visualization observer readout
Local Sidereal Time
02:39:50
Azimuth
Unknown
Elevation
Unknown
Doppler factor
Unknown
Orbital elements
Apogee altitude
30,464.389 km
Perigee altitude
248.808 km
Semi-major axis
21,734.735 km
Eccentricity
0.6951
Inclination
3.7567°
RAAN
105.3139°
Arg. of periapsis
7.5526°
True anomaly
353.55395°
Mean anomaly
359.165°
Eccentric anomaly
357.26378°
Mean motion
0.67735 °/min
Orbital period
531.48 mins
BSTAR
0.00070328
Loading maneuver chart data...
Computing Atmospheric mass density...
Loading historical data...
Loading historical data...
Loading historical data...
Loading historical data...
Loading historical data...
Loading historical data...
Loading historical data...
Other satellites on launch #26 in the year 2015 (2015-05-27 UTC)

Documentation

Showing up to 5 results
|